Regional Weather Roundup
Issued by NWS New Orleans/Baton Rouge, LA

Home | Current Version | Previous Version | Graphics & Text | Print | Product List | Glossary On
Versions: 1 2 3 4 5 6 7 8 9 10 11 12 13 14 15 16 17 18 19 20 21 22 23 24 25 26 27 28 29 30 31 32 33 34 35 36 37 38 39 40 41 42 43 44 45 46 47 48 49 50
785
ASUS44 KLIX 232005
RWRLIX
NEW ORLEANS REGIONAL WEATHER ROUNDUP
NATIONAL WEATHER SERVICE NEW ORLEANS LA
200 PM CST SUN NOV 23 2014

NOTE: "FAIR" INDICATES FEW OR NO CLOUDS BELOW 12,000 FEET WITH NO
      SIGNIFICANT WEATHER AND/OR OBSTRUCTIONS TO VISIBILITY.
      SKY/WX - SKY CONDITION AND SIGNIFICANT WEATHER.
      TMP - AIR TEMPERATURE.     DP    - DEWPOINT TEMPERATURE.
      RH  - RELATIVE HUMIDITY.   PRES  - PRESSURE.
      HI  - HEAT INDEX.          WCI   - WIND CHILL INDEX.

*  THESE STATIONS ARE NOT NWS OR FAA STATIONS AND ARE NOT UNDER
   NWS QUALITY CONTROL.

LAZ038-040-048-061>063-065>067-069-232100-
SOUTHEAST LOUISIANA

CITY           SKY/WX    TMP DP  RH WIND       PRES   REMARKS
N.O. AUDUBON     N/A     73  63  71 MISG        N/A
N.O. INTL ARPT PTSUNNY   73  59  61 SW16      29.64F
N.O. LAKEFRONT MOSUNNY   73  59  61 SW23      29.65F
N.O. DOWNTOWN*   N/A     73  59  60 SW10G26   29.66F
SLIDELL        MOSUNNY   73  59  61 SW13G23   29.63F
BATON ROUGE    PTSUNNY   74  58  57 SW24G36   29.60F
BOOTHVILLE     SUNNY     69  64  84 SW16G28   29.69F
BELLE CHASSE   MOSUNNY   74  60  61 SW22G31   29.66F
BOGALUSA*        N/A     74  59  60 SW16G22   29.62F
NEW ROADS*       N/A     74  57  55 SW18G28   29.59F
GONZALES*      CLOUDY    74  62  66 SW12G28   29.63F
HAMMOND*       PTSUNNY   73  57  56 SW14G24   29.63S
HOUMA*         PTSUNNY   73  64  73 SW17G25   29.66F
PORT FOURCHON* CLEAR     73  64  73 SW15G23   29.71S

$$

MSZ070-080>082-232100-
SOUTHERN MISSISSIPPI

CITY           SKY/WX    TMP DP  RH WIND       PRES   REMARKS
MCCOMB         CLOUDY    70  59  68 S12G24    29.57F
GULFPORT       MOSUNNY   68  60  75 SW10G20   29.65F
BILOXI         SUNNY     65  61  85 SW15      29.66S
PASCAGOULA     PTSUNNY   67  60  78 S14G22    29.68F
STENNIS ARPT*  MOSUNNY   72  59  64 MISG      29.64F

$$

COASTAL OBSERVATIONS
LAKE AND NEARSHORE STATIONS

STATION/POSITION TIME  TEMP    WIND        PRES    WAVE
                       AIR SEA DIR/SP/G            HT/PER
                 (UTC) (F)     (DEG/KT/KT) (MB)    (FT/S)
PASCAGOULA       2000   65     210/ 19/ 24 1004.6
WAVELAND YACHT   2000   68     210/ 11/ 17 1003.3
GRAND ISLE       2000   71 64  230/ 13/ 18 1005.5
SOUTHWEST PASS   2000   70 71              1006.0
NEW CANAL        2000   72 56  220/ 10/ 18 1004.2
SHELL BEACH      2000   69 54  220/ 16/ 22 1004.2

OFFSHORE STATIONS

STATION/POSITION TIME  TEMP    WIND        PRES    WAVE
                       AIR SEA DIR/SP/G            HT/PER
                 (UTC) (F)     (DEG/KT/KT) (MB)    (FT/S)
64 S DAUPHIN ISL 1853   70 72  230/ 27/ 33 1007.0    9/ 6

$$




USA.gov is the U.S. government's official web portal to all federal, state and local government web resources and services.